DW1824 Weather Reports


time (UTC)temp
F
wind
direction
speed
knots
gust
knots
rain 1hr
in
rain 24hr
in
rain mn
in
humidity
%
barometer
mb
20260903044333 83 5 0.0 0.0 0.00 0.04 0.03 85 1015.0
20260903043336 83 5 0.0 0.0 0.00 0.04 0.03 83 1015.2
20260903042343 84 5 0.0 0.0 0.00 0.04 0.03 82 1015.3
20260903041331 84 5 0.0 0.0 0.00 0.04 0.03 81 1015.2
20260903040333 84 27 0.0 0.0 0.00 0.04 0.03 80 1015.0
20260903035357 84 27 0.0 0.0 0.00 0.04 0.03 80 1015.0
20260903034343 84 27 0.0 0.0 0.00 0.04 0.03 79 1014.9
20260903033346 84 27 0.0 0.0 0.00 0.04 0.03 78 1014.8
20260903032350 84 141 0.0 1.7 0.00 0.04 0.03 78 1014.6
20260903031333 84 141 0.9 4.3 0.00 0.04 0.03 78 1014.3
20260903030336 85 148 1.7 4.3 0.00 0.04 0.03 77 1014.0
20260903025339 85 137 2.6 7.0 0.00 0.04 0.03 76 1013.4
20260903024347 85 147 2.6 8.7 0.00 0.04 0.03 75 1013.4
20260903023348 85 138 3.5 10.4 0.00 0.04 0.03 74 1013.2
20260903022336 86 131 4.3 9.6 0.00 0.04 0.03 73 1013.1
20260903021340 86 142 3.5 8.7 0.00 0.04 0.03 71 1012.7
20260903020342 86 132 2.6 8.7 0.00 0.04 0.03 70 1012.6
20260903015327 87 141 3.5 8.7 0.00 0.04 0.03 70 1012.4
20260903014326 87 129 3.5 8.7 0.00 0.04 0.03 69 1012.3
20260903013330 88 141 3.5 10.4 0.00 0.04 0.03 68 1012.1
20260903012335 88 143 3.5 7.8 0.00 0.04 0.03 63 1012.1
20260903011325 89 144 1.7 7.0 0.00 0.04 0.03 60 1012.0
20260903010327 90 155 2.6 7.8 0.00 0.04 0.03 58 1011.8
20260903005331 90 145 2.6 7.0 0.02 0.04 0.03 57 1011.8
20260903004335 90 141 1.7 7.8 0.02 0.04 0.03 57 1011.8
20260903003339 91 145 4.3 8.7 0.02 0.04 0.03 56 1011.6
20260903002343 92 139 5.2 8.7 0.02 0.04 0.03 57 1011.2
20260903001329 92 144 4.3 12.2 0.02 0.04 0.03 56 1011.1
20260903000332 93 151 2.6 10.4 0.02 0.04 0.03 55 1011.0
20260902235342 93 149 3.5 8.7 0.00 0.02 0.02 54 1011.0
20260902234346 94 144 6.1 12.2 0.00 0.02 0.02 53 1010.9
20260902233344 95 140 2.6 7.8 0.01 0.02 0.02 54 1010.9
20260902232329 95 144 2.6 7.0 0.01 0.02 0.02 53 1010.9
20260902231352 95 155 3.5 9.6 0.02 0.02 0.02 52 1010.8
20260902230332 96 123 1.7 8.7 0.02 0.02 0.02 53 1010.9
20260902225337 96 146 5.2 10.4 0.02 0.02 0.02 50 1010.9
20260902224403 97 145 1.7 6.1 0.02 0.02 0.02 48 1010.8
20260902223343 97 168 0.9 3.5 0.01 0.01 0.01 46 1010.8
20260902222354 97 131 1.7 2.6 0.01 0.01 0.01 46 1010.8
20260902221335 97 183 0.9 6.1 0.00 0.00 0.00 47 1011.0
20260902220359 97 200 0.9 6.1 0.00 0.00 0.00 48 1010.8
20260902215343 98 109 0.0 5.2 0.00 0.00 0.00 47 1010.9
20260902214328 98 146 0.9 2.6 0.00 0.00 0.00 47 1010.9
20260902213331 97 203 0.9 2.6 0.00 0.00 0.00 47 1011.1
20260902212336 97 176 0.9 3.5 0.00 0.00 0.00 47 1011.2
20260902211341 97 142 0.9 4.3 0.00 0.00 0.00 48 1011.3
20260902210327 97 201 0.9 4.3 0.00 0.00 0.00 49 1011.4
20260902205333 96 137 0.0 2.6 0.00 0.00 0.00 50 1011.4
20260902204339 94 174 0.0 1.7 0.00 0.00 0.00 56 1011.8
20260902203342 93 172 0.9 2.6 0.00 0.00 0.00 59 1011.8
20260902202328 89 162 1.7 5.2 0.00 0.00 0.00 62 1012.0
20260902201334 89 44 0.0 3.5 0.00 0.00 0.00 71 1012.0
20260902200341 91 289 1.7 3.5 0.00 0.00 0.00 66 1012.6
20260902195329 92 141 1.7 2.6 0.00 0.00 0.00 61 1012.5
20260902194335 94 147 1.7 3.5 0.00 0.00 0.00 54 1012.7
20260902193336 95 228 0.9 2.6 0.00 0.00 0.00 52 1012.8
20260902192343 95 241 0.9 4.3 0.00 0.00 0.00 51 1013.0
20260902191326 94 176 1.7 3.5 0.00 0.00 0.00 53 1013.0
20260902190331 95 260 0.0 1.7 0.00 0.00 0.00 56 1013.1
20260902185336 95 249 0.9 4.3 0.00 0.00 0.00 53 1013.3
20260902184344 96 284 0.9 7.0 0.00 0.00 0.00 52 1013.5
20260902183328 95 181 0.9 3.5 0.00 0.00 0.00 52 1013.7
20260902182333 94 193 0.0 4.3 0.00 0.00 0.00 55 1013.9
20260902181338 94 237 1.7 5.2 0.00 0.00 0.00 55 1014.0
20260902180324 94 210 1.7 3.5 0.00 0.00 0.00 56 1014.1
20260902175350 94 203 0.9 6.1 0.00 0.00 0.00 56 1014.4
20260902174353 94 193 1.7 3.5 0.00 0.00 0.00 58 1014.7
20260902173334 94 189 1.7 5.2 0.00 0.00 0.00 55 1014.8
20260902172342 93 210 1.7 5.2 0.00 0.00 0.00 56 1015.0
20260902171349 93 195 1.7 7.8 0.00 0.00 0.00 58 1015.2
20260902170351 92 166 2.6 7.0 0.00 0.00 0.00 58 1015.2
20260902165337 91 216 1.7 7.0 0.00 0.00 0.00 61 1015.4
20260902164342 92 168 1.7 4.3 0.00 0.00 0.00 64 1015.4
20260902163347 91 176 1.7 7.8 0.00 0.00 0.00 63 1015.5
20260902162332 90 251 0.9 4.3 0.00 0.00 0.00 65 1015.6
20260902161337 89 261 1.7 6.1 0.00 0.00 0.00 67 1015.6
20260902160403 89 214 1.7 3.5 0.00 0.00 0.00 66 1015.8
20260902155329 89 219 1.7 6.1 0.00 0.00 0.00 68 1016.0
20260902154333 88 248 2.6 5.2 0.00 0.00 0.00 70 1015.8
20260902153337 88 212 1.7 4.3 0.00 0.00 0.00 71 1015.8
20260902152342 87 243 1.7 5.2 0.00 0.00 0.00 74 1015.8
20260902151345 86 268 1.7 4.3 0.00 0.00 0.00 75 1015.7
20260902150330 86 223 0.0 0.0 0.00 0.00 0.00 77 1015.7
20260902145335 85 249 0.0 0.0 0.00 0.00 0.00 80 1015.6
20260902144340 84 239 0.0 0.0 0.00 0.00 0.00 82 1015.7
20260902143329 83 239 0.0 3.5 0.00 0.00 0.00 85 1015.5
20260902142334 82 252 0.9 2.6 0.00 0.00 0.00 87 1015.6
20260902141339 81 245 0.9 1.7 0.00 0.00 0.00 87 1015.7
20260902140404 81 211 0.0 1.7 0.00 0.00 0.00 89 1015.8
20260902135328 81 243 0.0 1.7 0.00 0.00 0.00 89 1015.8
20260902134334 80 224 0.0 0.9 0.00 0.00 0.00 89 1015.8
20260902133340 80 226 0.0 0.9 0.00 0.00 0.00 89 1015.7
20260902132329 80 238 0.0 1.7 0.00 0.00 0.00 89 1015.6
20260902131335 80 241 0.0 1.7 0.00 0.00 0.00 89 1015.4
20260902130339 80 261 0.0 1.7 0.00 0.00 0.00 89 1015.2
20260902125403 80 199 0.9 2.6 0.00 0.00 0.00 90 1015.0
20260902124328 80 270 0.0 3.5 0.00 0.00 0.00 90 1014.8
20260902123334 79 203 0.0 2.6 0.00 0.00 0.00 91 1014.6
20260902122339 79 190 0.0 2.6 0.00 0.00 0.00 91 1014.3
20260902121328 79 241 0.0 1.7 0.00 0.00 0.00 91 1014.3
20260902120334 79 242 0.0 0.0 0.00 0.00 0.00 91 1014.4
20260902115340 79 224 0.0 0.0 0.00 0.00 0.00 91 1014.4
20260902114327 79 249 0.0 1.7 0.00 0.00 0.00 90 1014.4
20260902113329 79 249 0.0 0.9 0.00 0.00 0.00 90 1014.5
20260902112335 79 255 0.0 1.7 0.00 0.00 0.00 90 1014.4
20260902111339 79 270 0.0 1.7 0.00 0.00 0.00 90 1014.4
20260902110328 80 253 0.0 0.9 0.00 0.00 0.00 90 1014.3
20260902105333 80 233 0.0 0.9 0.00 0.00 0.00 90 1014.3
20260902104338 79 218 0.0 2.6 0.00 0.00 0.00 89 1014.2
20260902103343 80 150 0.0 2.6 0.00 0.00 0.00 89 1014.2
20260902102328 80 257 0.0 2.6 0.00 0.00 0.00 89 1014.2
20260902101333 80 234 0.0 0.0 0.00 0.00 0.00 88 1014.1
20260902100359 80 251 0.0 1.7 0.00 0.00 0.00 88 1014.1
20260902095327 80 215 0.0 0.9 0.00 0.00 0.00 88 1014.1
20260902094333 80 213 0.0 3.5 0.00 0.00 0.00 88 1014.2
20260902093338 80 197 0.0 2.6 0.00 0.00 0.00 87 1014.1
20260902092343 80 239 0.9 2.6 0.00 0.00 0.00 87 1014.0
20260902091327 80 168 0.0 2.6 0.00 0.00 0.00 87 1014.1
20260902090332 80 221 0.0 3.5 0.00 0.00 0.00 87 1014.1
20260902085359 80 220 0.0 2.6 0.00 0.00 0.00 87 1014.0
20260902084326 80 247 0.0 2.6 0.00 0.00 0.00 87 1014.1
20260902083329 80 195 0.0 3.5 0.00 0.00 0.00 87 1014.1
20260902082335 80 257 0.0 0.9 0.00 0.00 0.00 87 1014.1
20260902081339 80 280 0.0 1.7 0.00 0.00 0.00 87 1014.1
20260902080341 80 281 0.0 0.0 0.00 0.00 0.00 86 1014.2
20260902075326 80 243 0.0 0.9 0.00 0.00 0.00 87 1014.2
20260902074353 80 262 0.0 0.9 0.00 0.00 0.00 87 1014.2
20260902073354 80 222 0.0 0.9 0.00 0.00 0.00 86 1014.3
20260902072359 80 222 0.0 0.0 0.00 0.00 0.00 86 1014.3
20260902071327 80 222 0.0 0.9 0.00 0.00 0.00 86 1014.4
20260902070328 80 235 0.0 0.9 0.00 0.00 0.00 85 1014.3
20260902065354 80 219 0.0 1.7 0.00 0.00 0.00 86 1014.4
20260902064339 79 234 0.0 1.7 0.00 0.00 0.00 86 1014.3
20260902063340 78 214 0.0 0.9 0.00 0.00 0.00 85 1014.4
20260902062325 78 343 0.0 0.0 0.00 0.00 0.00 86 1014.4
20260902061332 78 343 0.0 0.0 0.00 0.00 0.00 88 1014.3
20260902060355 78 343 0.0 0.0 0.00 0.00 0.00 88 1014.4
20260902055344 78 343 0.0 0.0 0.00 0.00 0.00 88 1014.5
20260902054330 78 343 0.0 0.0 0.00 0.00 0.00 87 1014.5
20260902053333 78 343 0.0 0.0 0.00 0.00 0.00 87 1014.4
20260902052338 78 343 0.0 0.0 0.00 0.00 0.00 87 1014.5
20260902051343 79 343 0.0 0.0 0.00 0.00 0.00 86 1014.4
20260902050326 79 343 0.0 0.0 0.00 0.00 0.00 86 1014.4
20260902045330 79 343 0.0 0.0 0.00 0.00 0.00 86 1014.3